CW6259 Weather Reports


time (UTC)temp
C
wind
direction
speed
KPH
gust
KPH
rain 1hr
cm
rain 24hr
cm
rain mn
cm
humidity
%
barometer
mb
20260504002516 26 0.0 9.7 0.00 0.00 0.00 42 1010.1
20260504002017 26 0.0 9.7 0.00 0.00 0.00 41 1010.1
20260504001516 27 248 1.6 11.3 0.00 0.00 0.00 40 1010.1
20260504001016 27 0.0 4.8 0.00 0.00 0.00 40 1010.1
20260504000516 27 0.0 4.8 0.00 0.00 0.00 41 1010.1
20260504000037 27 0.0 1.6 0.00 0.00 0.00 41 1010.2
20260503235516 28 0.0 8.0 0.00 0.00 0.00 40 1010.3
20260503235017 28 0.0 4.8 0.00 0.00 0.00 40 1010.4
20260503234516 28 0.0 1.6 0.00 0.00 0.00 39 1010.4
20260503234016 28 0.0 1.6 0.00 0.00 0.00 40 1010.4
20260503233536 27 0.0 4.8 0.00 0.00 0.00 39 1010.5
20260503233016 27 0.0 1.6 0.00 0.00 0.00 42 1010.6
20260503232516 27 0.0 4.8 0.00 0.00 0.00 42 1010.7
20260503232016 27 0.0 6.4 0.00 0.00 0.00 40 1010.8
20260503231516 27 0.0 11.3 0.00 0.00 0.00 38 1010.9
20260503231016 27 0.0 1.6 0.00 0.00 0.00 41 1010.9
20260503230516 27 0.0 1.6 0.00 0.00 0.00 42 1010.9
20260503230017 27 0.0 1.6 0.00 0.00 0.00 40 1011.0
20260503225536 27 0.0 1.6 0.00 0.00 0.00 41 1011.1
20260503225016 27 0.0 8.0 0.00 0.00 0.00 41 1011.1
20260503224516 27 0.0 1.6 0.00 0.00 0.00 41 1011.3
20260503224016 27 0.0 1.6 0.00 0.00 0.00 42 1011.4
20260503223517 27 0.0 3.2 0.00 0.00 0.00 43 1011.4
20260503223016 27 0.0 1.6 0.00 0.00 0.00 44 1011.5
20260503222516 27 0.0 1.6 0.00 0.00 0.00 43 1011.5
20260503222016 27 0.0 9.7 0.00 0.00 0.00 42 1011.6
20260503221516 27 0.0 8.0 0.00 0.00 0.00 44 1011.7
20260503221016 27 0.0 9.7 0.00 0.00 0.00 44 1011.8
20260503220516 27 270 1.6 11.3 0.00 0.00 0.00 43 1011.8
20260503220016 27 270 1.6 11.3 0.00 0.00 0.00 40 1011.8
20260503215516 27 0.0 12.9 0.00 0.00 0.00 41 1011.9
20260503215016 28 0.0 11.3 0.00 0.00 0.00 41 1011.9
20260503214516 28 0.0 1.6 0.00 0.00 0.00 41 1012.0
20260503214016 28 0.0 1.6 0.00 0.00 0.00 39 1012.0
20260503213516 27 0.0 1.6 0.00 0.00 0.00 40 1012.0
20260503213016 27 0.0 9.7 0.00 0.00 0.00 43 1012.0
20260503212516 27 0.0 8.0 0.00 0.00 0.00 41 1012.1
20260503212036 27 0.0 8.0 0.00 0.00 0.00 41 1012.1
20260503211516 27 270 1.6 11.3 0.00 0.00 0.00 41 1012.1
20260503211016 27 0.0 1.6 0.00 0.00 0.00 42 1012.2
20260503210516 27 0.0 8.0 0.00 0.00 0.00 41 1012.2
20260503210016 27 0.0 1.6 0.00 0.00 0.00 43 1012.3
20260503205536 27 0.0 0.0 0.00 0.00 0.00 43 1012.3
20260503205016 26 0.0 6.4 0.00 0.00 0.00 44 1012.4
20260503204557 26 0.0 4.8 0.00 0.00 0.00 44 1012.4
20260503204016 26 0.0 4.8 0.00 0.00 0.00 43 1012.5
20260503203516 26 0.0 1.6 0.00 0.00 0.00 44 1012.5
20260503203016 26 270 1.6 6.4 0.00 0.00 0.00 43 1012.5
20260503202536 26 0.0 4.8 0.00 0.00 0.00 43 1012.5
20260503202036 26 0.0 11.3 0.00 0.00 0.00 42 1012.6
20260503201517 25 270 1.6 11.3 0.00 0.00 0.00 45 1012.7
20260503201016 25 0.0 6.4 0.00 0.00 0.00 44 1012.7
20260503200536 25 248 4.8 14.5 0.00 0.00 0.00 42 1012.8
20260503200016 25 248 1.6 11.3 0.00 0.00 0.00 46 1012.9
20260503195515 25 0.0 4.8 0.00 0.00 0.00 47 1012.9
20260503195056 25 45 1.6 9.7 0.00 0.00 0.00 45 1013.1
20260503194556 25 270 1.6 4.8 0.00 0.00 0.00 46 1013.1
20260503194016 25 0.0 4.8 0.00 0.00 0.00 45 1013.2
20260503193516 25 45 1.6 6.4 0.00 0.00 0.00 46 1013.2
20260503193015 25 270 1.6 9.7 0.00 0.00 0.00 48 1013.3
20260503192515 25 248 1.6 16.1 0.00 0.00 0.00 47 1013.3
20260503192015 25 0.0 3.2 0.00 0.00 0.00 46 1013.3
20260503191515 24 0.0 4.8 0.00 0.00 0.00 47 1013.5
20260503191035 24 68 1.6 6.4 0.00 0.00 0.00 48 1013.4
20260503190515 24 23 1.6 9.7 0.00 0.00 0.00 47 1013.5
20260503190015 24 248 1.6 9.7 0.00 0.00 0.00 48 1013.6
20260503185516 23 0.0 6.4 0.00 0.00 0.00 48 1013.6
20260503185015 23 0.0 6.4 0.00 0.00 0.00 49 1013.7
20260503184516 23 225 1.6 8.0 0.00 0.00 0.00 49 1013.7
20260503184016 23 0.0 8.0 0.00 0.00 0.00 49 1013.8
20260503183515 23 248 1.6 11.3 0.00 0.00 0.00 51 1013.8
20260503183016 23 0.0 6.4 0.00 0.00 0.00 51 1013.8
20260503182536 23 248 1.6 8.0 0.00 0.00 0.00 50 1013.8
20260503182016 22 68 1.6 9.7 0.00 0.00 0.00 50 1013.9
20260503181516 22 45 1.6 9.7 0.00 0.00 0.00 51 1013.9
20260503181015 22 225 1.6 11.3 0.00 0.00 0.00 50 1013.9
20260503180515 22 0.0 6.4 0.00 0.00 0.00 50 1013.9
20260503180018 22 0.0 6.4 0.00 0.00 0.00 52 1013.8
20260503175517 22 0.0 8.0 0.00 0.00 0.00 53 1013.9
20260503175057 22 270 1.6 9.7 0.00 0.00 0.00 52 1014.0
20260503174537 22 0.0 3.2 0.00 0.00 0.00 54 1014.0
20260503174017 22 0.0 1.6 0.00 0.00 0.00 54 1013.9
20260503173517 22 0.0 1.6 0.00 0.00 0.00 55 1013.9
20260503173017 22 0.0 6.4 0.00 0.00 0.00 54 1014.0
20260503172517 22 0.0 1.6 0.00 0.00 0.00 56 1014.1
20260503172017 21 0.0 0.0 0.00 0.00 0.00 57 1014.1
20260503171517 21 0.0 3.2 0.00 0.00 0.00 57 1014.0
20260503171017 21 0.0 1.6 0.00 0.00 0.00 57 1014.1
20260503170517 21 0.0 4.8 0.00 0.00 0.00 58 1014.1
20260503150517 15 0.0 1.6 0.00 0.00 0.00 75 1014.5
20260503150117 15 0.0 0.0 0.00 0.00 0.00 75 1014.5
20260503131016 13 0.0 0.0 0.00 0.00 0.00 76 1014.1
20260503130516 13 0.0 0.0 0.00 0.00 0.00 76 1014.2
20260503110515 13 0.0 0.0 0.00 0.03 0.00 73 1014.6
20260503081538 14 0.0 0.0 0.00 0.03 0.00 65 1014.5
20260503081037 14 0.0 0.0 0.00 0.03 0.00 64 1014.6
20260503080517 14 0.0 0.0 0.00 0.03 0.00 64 1014.6
20260503072537 14 0.0 0.0 0.00 0.05 0.00 63 1014.5
20260503072017 15 0.0 0.0 0.00 0.05 0.00 63 1014.4
20260503071517 15 0.0 0.0 0.00 0.05 0.00 63 1014.4
20260503071017 15 0.0 0.0 0.00 0.05 0.00 63 1014.4
20260503070517 15 0.0 0.0 0.00 0.05 0.00 63 1014.4
20260503055016 16 0.0 0.0 0.00 0.05 0.05 60 1014.3
20260503054516 16 0.0 0.0 0.00 0.05 0.05 60 1014.3
20260503054017 16 0.0 3.2 0.00 0.05 0.05 60 1014.3
20260503053536 16 0.0 1.6 0.00 0.05 0.05 61 1014.2
20260503053016 16 0.0 1.6 0.00 0.05 0.05 61 1014.2
20260503052516 16 0.0 3.2 0.00 0.05 0.05 60 1014.2
20260503052016 16 0.0 0.0 0.00 0.05 0.05 61 1014.3
20260503051516 16 0.0 0.0 0.00 0.05 0.05 61 1014.2
20260503051016 16 0.0 0.0 0.00 0.05 0.05 61 1014.2
20260503050516 16 0.0 0.0 0.00 0.05 0.05 60 1014.2
20260503050016 16 0.0 0.0 0.00 0.05 0.05 60 1014.3
20260503045536 16 0.0 0.0 0.00 0.05 0.05 60 1014.2
20260503045016 16 0.0 0.0 0.00 0.05 0.05 59 1014.1
20260503044516 16 0.0 0.0 0.00 0.05 0.05 59 1014.1
20260503044016 16 0.0 0.0 0.00 0.05 0.05 58 1014.1
20260503043516 17 0.0 0.0 0.00 0.05 0.05 57 1014.1
20260503043016 17 0.0 0.0 0.00 0.05 0.05 57 1014.0
20260503042536 17 0.0 1.6 0.00 0.05 0.05 57 1013.9
20260503042016 17 0.0 0.0 0.00 0.05 0.05 56 1013.9
20260503041516 17 0.0 0.0 0.00 0.05 0.05 56 1013.8
20260503041016 17 0.0 3.2 0.00 0.05 0.05 57 1013.7
20260503040516 17 0.0 0.0 0.00 0.05 0.05 56 1013.7
20260503040056 17 0.0 0.0 0.00 0.05 0.05 56 1013.6
20260503035536 17 0.0 4.8 0.00 0.05 0.05 56 1013.5
20260503035015 17 0.0 0.0 0.00 0.05 0.05 58 1013.4
20260503034516 17 0.0 3.2 0.00 0.05 0.05 58 1013.4
20260503034016 17 0.0 0.0 0.00 0.05 0.05 58 1013.4
20260503033536 17 0.0 1.6 0.00 0.05 0.05 58 1013.3
20260503033016 18 0.0 0.0 0.00 0.05 0.05 59 1013.2
20260503032516 18 0.0 0.0 0.00 0.05 0.05 59 1013.2
20260503032016 18 0.0 0.0 0.00 0.05 0.05 58 1013.2
20260503031516 18 0.0 0.0 0.00 0.05 0.05 58 1013.2
20260503031016 18 0.0 0.0 0.00 0.05 0.05 58 1013.1
20260503030516 18 0.0 1.6 0.00 0.05 0.05 58 1013.1
20260503030015 18 0.0 0.0 0.00 0.05 0.05 57 1013.1
20260503025516 19 0.0 0.0 0.00 0.05 0.05 57 1013.0
20260503025035 19 0.0 1.6 0.00 0.05 0.05 58 1013.0
20260503024516 19 0.0 0.0 0.00 0.05 0.05 57 1013.0
20260503024015 19 0.0 8.0 0.00 0.05 0.05 57 1013.0
20260503023516 20 0.0 1.6 0.00 0.05 0.05 57 1013.0
20260503023016 20 0.0 6.4 0.00 0.05 0.05 56 1013.0
20260503022516 20 0.0 4.8 0.00 0.05 0.05 56 1013.0
20260503022015 20 0.0 1.6 0.00 0.05 0.05 56 1012.9
20260503021015 20 0.0 6.4 0.00 0.05 0.05 55 1012.9
20260503020516 21 0.0 6.4 0.00 0.05 0.05 55 1012.9
20260503020015 21 248 1.6 8.0 0.00 0.05 0.05 55 1012.9
20260503015535 21 270 1.6 12.9 0.00 0.05 0.05 56 1012.9
20260503015035 21 0.0 4.8 0.00 0.05 0.05 56 1013.0
20260503014515 21 248 1.6 9.7 0.00 0.05 0.05 56 1013.0
20260503014016 21 0.0 4.8 0.00 0.05 0.05 56 1013.0
20260503013515 21 270 1.6 6.4 0.00 0.05 0.05 56 1013.0
20260503013016 21 248 1.6 9.7 0.00 0.05 0.05 56 1013.1
20260503012515 21 0.0 4.8 0.00 0.05 0.05 57 1013.1
20260503012035 21 248 1.6 6.4 0.00 0.05 0.05 57 1013.0
20260503011515 21 0.0 6.4 0.00 0.05 0.05 57 1013.1
20260503011036 21 0.0 1.6 0.00 0.05 0.05 57 1013.0
20260503010535 21 0.0 9.7 0.00 0.05 0.05 56 1013.1
20260503010015 21 0.0 1.6 0.00 0.05 0.05 57 1013.1
20260503005515 21 225 1.6 6.4 0.00 0.05 0.05 56 1013.2
20260503005057 21 0.0 3.2 0.00 0.05 0.05 56 1013.3
20260503004517 21 0.0 4.8 0.00 0.05 0.05 56 1013.4
20260503004017 21 0.0 4.8 0.00 0.05 0.05 55 1013.4
20260503003517 21 0.0 3.2 0.00 0.05 0.05 56 1013.4
20260503003016 21 0.0 6.4 0.00 0.05 0.05 55 1013.4